map of MAN home
Great Circle Mapper logo
MAN - Airport
Location
City:  Manchester, England, United Kingdom
Name:Ringway International Airport
ICAO / IATA:EGCC / MAN

Details
Type:Airport (Aerodrome, Airfield)
Use:Public/Civil, International (customs port of entry)
Latitude:5321'13"N (53.353744)
Longitude:216'30"W (-2.274949)
Datum:WGS 1984
Elevation:257 ft (78 m)
Runways:2
Longest:10000 × 150 ft (3048 × 45.5 m), paved

Time
Time Zone:UTC+0 (DST+1)
Local Time:

Weather
METAR:EGCC 251250Z 21011KT 9999 VCSH FEW025 BKN030 13/10 Q1014 NOSIG
TAF:EGCC 251100Z 2512/2618 20009KT 9999 FEW015 SCT030
TEMPO 2512/2618 20015G25KT 8000 -RA BKN014

Related Locations
Nearby:
Farthest:NZBA: 11826 mi / 19033 km
Balclutha, NZ

Find:

   beyond  
but within

Other Information
Maps:
NOTAMs:
Links:
Sources:

  
flag of United Kingdom
flag of England
  

Sectional Chart

Flight Planning
at skyvector.com

Satellite Image

Google Maps Satellite View

 

Copyright © 2004-2014 Karl L. Swartz. All rights reserved.
The Great Circle Mapper name and logo are trademarks of the Great Circle Mapper.
All other trademarks mentioned herein belong to their respective owners.
Please see credits for attibutions and further copyright information.

  Follow gcmap on Facebook Follow gcmap on Twitter

hCard Microformat

Geo Microformat